When you browse on this site, cookies collect data to enhance your experience and personalize the content and advertising you see.
Visit our Privacy Policy to learn more. By continuing to use the site, you agree to this use of cookies and data.
EN

Hourly Weather Sharan

Today, 11 July, Saturday

Time Temperature Precipitation Wind Pressure Humidity
00:00 +26°C° 0 mm 2 mps 586 mmHg 23%
01:00 +25°C° 0 mm 2 mps 585 mmHg 23%
02:00 +24°C° 0 mm 2 mps 585 mmHg 23%
03:00 +23°C° 0 mm 2 mps 584 mmHg 24%
04:00 +21°C° 0 mm 2 mps 584 mmHg 25%
05:00 +20°C° 0 mm 2 mps 584 mmHg 26%
06:00 +21°C° 0 mm 2 mps 584 mmHg 24%
07:00 +22°C° 0 mm 3 mps 585 mmHg 22%
08:00 +23°C° 0 mm 4 mps 585 mmHg 21%
09:00 +26°C° 0 mm 4 mps 586 mmHg 19%
10:00 +27°C° 0 mm 4 mps 586 mmHg 17%
11:00 +28°C° 0 mm 4 mps 586 mmHg 15%
12:00 +29°C° 0 mm 4 mps 586 mmHg 13%
13:00 +30°C° 0 mm 3 mps 586 mmHg 12%
14:00 +31°C° 0 mm 3 mps 586 mmHg 11%
15:00 +31°C° 0 mm 3 mps 586 mmHg 10%
16:00 +31°C° 0 mm 3 mps 585 mmHg 10%
17:00 +32°C° 0 mm 2 mps 585 mmHg 10%
18:00 +31°C° 0 mm 2 mps 585 mmHg 11%
19:00 +30°C° 0 mm 2 mps 585 mmHg 12%
20:00 +29°C° 0 mm 1 mps 585 mmHg 14%
21:00 +28°C° 0 mm 2 mps 585 mmHg 20%
22:00 +27°C° 0 mm 2 mps 585 mmHg 27%
23:00 +26°C° 0 mm 3 mps 584 mmHg 34%

Tomorrow, 12 July, Sunday

Time Temperature Precipitation Wind Pressure Humidity
00:00 +25°C° 0 mm 3 mps 584 mmHg 36%
01:00 +24°C° 0 mm 2 mps 584 mmHg 37%
02:00 +24°C° 0 mm 2 mps 583 mmHg 39%
03:00 +23°C° 0 mm 2 mps 583 mmHg 40%
04:00 +21°C° 0 mm 2 mps 583 mmHg 41%
05:00 +21°C° 0 mm 2 mps 583 mmHg 42%
06:00 +23°C° 0 mm 2 mps 583 mmHg 40%
07:00 +23°C° 0 mm 2 mps 584 mmHg 38%
08:00 +24°C° 0 mm 2 mps 584 mmHg 36%
09:00 +26°C° 0 mm 2 mps 585 mmHg 32%
10:00 +27°C° 0 mm 3 mps 585 mmHg 28%
11:00 +29°C° 0 mm 3 mps 586 mmHg 24%
12:00 +30°C° 0 mm 4 mps 586 mmHg 20%
13:00 +32°C° 0 mm 5 mps 586 mmHg 17%
14:00 +34°C° 0 mm 7 mps 586 mmHg 13%
15:00 +33°C° 0 mm 6 mps 586 mmHg 14%
16:00 +33°C° 0 mm 6 mps 586 mmHg 15%
17:00 +32°C° 0 mm 5 mps 586 mmHg 16%
18:00 +30°C° 0 mm 5 mps 586 mmHg 19%
19:00 +29°C° 0 mm 5 mps 585 mmHg 22%
20:00 +28°C° 0 mm 5 mps 585 mmHg 25%
21:00 +27°C° 0 mm 5 mps 585 mmHg 30%
22:00 +26°C° 0 mm 4 mps 585 mmHg 34%
23:00 +25°C° 0 mm 4 mps 585 mmHg 39%

Day after tomorrow, 13 July, Monday

Time Temperature Precipitation Wind Pressure Humidity
00:00 +24°C° 0.1 mm 3 mps 584 mmHg 42%
01:00 +22°C° 0.1 mm 3 mps 584 mmHg 46%
02:00 +21°C° 0.1 mm 2 mps 584 mmHg 50%
03:00 +21°C° 0.2 mm 2 mps 584 mmHg 53%
04:00 +20°C° 0.2 mm 2 mps 583 mmHg 56%
05:00 +19°C° 0.2 mm 2 mps 583 mmHg 59%
06:00 +20°C° 0.1 mm 2 mps 584 mmHg 56%
07:00 +21°C° 0.1 mm 2 mps 584 mmHg 54%
08:00 +23°C° 0.1 mm 1 mps 585 mmHg 51%
09:00 +25°C° 0 mm 2 mps 586 mmHg 42%
10:00 +27°C° 0 mm 2 mps 586 mmHg 34%
11:00 +28°C° 0 mm 3 mps 587 mmHg 25%
12:00 +30°C° 0 mm 4 mps 587 mmHg 22%
13:00 +32°C° 0 mm 5 mps 587 mmHg 18%
14:00 +33°C° 0 mm 5 mps 588 mmHg 15%
15:00 +32°C° 0 mm 6 mps 587 mmHg 19%
16:00 +30°C° 0 mm 6 mps 587 mmHg 23%
17:00 +29°C° 0 mm 7 mps 586 mmHg 27%
18:00 +28°C° 0 mm 6 mps 586 mmHg 32%
19:00 +26°C° 0 mm 6 mps 586 mmHg 37%
20:00 +23°C° 0 mm 5 mps 585 mmHg 42%
21:00 +23°C° 0 mm 4 mps 586 mmHg 43%
22:00 +22°C° 0 mm 3 mps 586 mmHg 43%
23:00 +23°C° 0 mm 2 mps 586 mmHg 44%

14 July, Tuesday

Time Temperature Precipitation Wind Pressure Humidity
00:00 +22°C° 0 mm 1 mps 586 mmHg 45%
01:00 +22°C° 0 mm 1 mps 586 mmHg 47%
02:00 +22°C° 0 mm 1 mps 585 mmHg 48%
03:00 +21°C° 0 mm 1 mps 585 mmHg 50%
04:00 +19°C° 0 mm 0 mps 585 mmHg 52%
05:00 +18°C° 0 mm 0 mps 585 mmHg 54%
06:00 +19°C° 0 mm 0 mps 586 mmHg 50%
07:00 +20°C° 0 mm 0 mps 586 mmHg 45%
08:00 +21°C° 0 mm 0 mps 587 mmHg 41%
09:00 +25°C° 0 mm 1 mps 587 mmHg 35%
10:00 +27°C° 0 mm 2 mps 588 mmHg 29%
11:00 +28°C° 0 mm 3 mps 588 mmHg 23%
12:00 +30°C° 0 mm 3 mps 589 mmHg 20%
13:00 +32°C° 0 mm 4 mps 589 mmHg 17%
14:00 +33°C° 0 mm 4 mps 589 mmHg 14%
15:00 +33°C° 0 mm 4 mps 589 mmHg 14%
16:00 +33°C° 0 mm 5 mps 588 mmHg 15%
17:00 +34°C° 0 mm 5 mps 588 mmHg 15%
18:00 +32°C° 0 mm 5 mps 588 mmHg 17%
19:00 +30°C° 0 mm 6 mps 588 mmHg 20%
20:00 +29°C° 0 mm 6 mps 587 mmHg 22%
21:00 +28°C° 0 mm 5 mps 587 mmHg 24%
22:00 +27°C° 0 mm 5 mps 587 mmHg 27%
23:00 +27°C° 0 mm 4 mps 587 mmHg 29%

15 July, Wednesday

Time Temperature Precipitation Wind Pressure Humidity
00:00 +26°C° 0 mm 3 mps 587 mmHg 31%
01:00 +25°C° 0 mm 3 mps 587 mmHg 34%
02:00 +24°C° 0 mm 2 mps 586 mmHg 36%
03:00 +24°C° 0 mm 2 mps 586 mmHg 39%
04:00 +23°C° 0 mm 1 mps 586 mmHg 42%
05:00 +22°C° 0 mm 1 mps 585 mmHg 45%
06:00 +23°C° 0 mm 1 mps 586 mmHg 41%
07:00 +23°C° 0 mm 0 mps 587 mmHg 38%
08:00 +24°C° 0 mm 0 mps 588 mmHg 35%
09:00 +27°C° 0 mm 1 mps 588 mmHg 29%
10:00 +29°C° 0 mm 2 mps 589 mmHg 23%
11:00 +30°C° 0 mm 3 mps 589 mmHg 17%
12:00 +32°C° 0 mm 4 mps 589 mmHg 14%
13:00 +33°C° 0 mm 5 mps 589 mmHg 12%
14:00 +34°C° 0 mm 6 mps 589 mmHg 9%
15:00 +34°C° 0 mm 6 mps 589 mmHg 10%
16:00 +34°C° 0 mm 6 mps 589 mmHg 11%
17:00 +34°C° 0 mm 6 mps 588 mmHg 11%
18:00 +33°C° 0 mm 6 mps 588 mmHg 17%
19:00 +30°C° 0 mm 6 mps 587 mmHg 23%
20:00 +29°C° 0 mm 6 mps 587 mmHg 29%
21:00 +28°C° 0 mm 6 mps 587 mmHg 34%
22:00 +27°C° 0 mm 5 mps 587 mmHg 39%
23:00 +26°C° 0 mm 4 mps 587 mmHg 44%

16 July, Thursday

Time Temperature Precipitation Wind Pressure Humidity
00:00 +26°C° 0 mm 4 mps 587 mmHg 45%
01:00 +25°C° 0 mm 3 mps 586 mmHg 47%
02:00 +24°C° 0 mm 2 mps 586 mmHg 48%
03:00 +24°C° 0.1 mm 2 mps 585 mmHg 49%
04:00 +23°C° 0.1 mm 2 mps 585 mmHg 50%
05:00 +23°C° 0.1 mm 2 mps 585 mmHg 51%
06:00 +23°C° 0 mm 2 mps 585 mmHg 49%
07:00 +24°C° 0 mm 2 mps 586 mmHg 46%
08:00 +25°C° 0 mm 2 mps 586 mmHg 44%
09:00 +26°C° 0 mm 2 mps 587 mmHg 39%
10:00 +28°C° 0 mm 2 mps 587 mmHg 33%
11:00 +29°C° 0 mm 2 mps 587 mmHg 27%
12:00 +30°C° 0 mm 3 mps 587 mmHg 24%
13:00 +32°C° 0 mm 4 mps 587 mmHg 20%
14:00 +33°C° 0 mm 4 mps 587 mmHg 17%
15:00 +32°C° 0 mm 5 mps 587 mmHg 19%
16:00 +32°C° 0 mm 5 mps 587 mmHg 22%
17:00 +32°C° 0 mm 5 mps 587 mmHg 24%
18:00 +29°C° 0.1 mm 5 mps 586 mmHg 30%
19:00 +28°C° 0.1 mm 6 mps 586 mmHg 35%
20:00 +26°C° 0.1 mm 6 mps 585 mmHg 41%
21:00 +25°C° 0.7 mm 5 mps 586 mmHg 43%
22:00 +25°C° 0.7 mm 3 mps 586 mmHg 46%
23:00 +24°C° 0.7 mm 2 mps 586 mmHg 48%
Show more